Location: Easter Hill Village
(37.9235°N, 122.3444°W)
Time: 19:59:26
(UTC+00:00)

Cosmos 1733 Rocket - Pass Details

Date: 16 September 2019
Orbit: 604 x 627 km, 82.5° (Epoch: 12 October)

Event Time Altitude Azimuth Distance (km) Brightness Sun altitude
Rises 12:38:57 0° 348° (NNW) 2,919 6.6 -15.0°
Reaches altitude 10° 12:41:13 10° 344° (NNW) 2,009 5.7 -14.6°
Maximum altitude 12:45:35 56° 266° (W) 745 3.1 -13.7°
Drops below altitude 10° 12:49:55 10° 188° (S) 1,994 5.4 -12.9°
Sets 12:52:10 0° 185° (S) 2,894 6.3 -12.5°
